Time,TemperatureF,DewpointF,PressureIn,WindDirection,WindDirectionDegrees,WindSpeedMPH,WindSpeedGustMPH,Humidity,HourlyPrecipIn,Conditions,Clouds,dailyrainin,SoftwareType,DateUTC
2013-10-19 00:07:00,31.0,27.0,30.11,ENE,63,1.0,3.0,85,0.00,,,0.00,weatherlink.com 1.10,2013-10-19 06:07:00,
2013-10-19 00:22:00,31.5,28.0,30.11,NE,55,0.0,4.0,87,0.00,,,0.00,weatherlink.com 1.10,2013-10-19 06:22:00,
2013-10-19 00:37:00,30.8,28.0,30.11,NE,37,0.0,3.0,88,0.00,,,0.00,weatherlink.com 1.10,2013-10-19 06:37:00,
2013-10-19 00:52:00,30.6,27.0,30.11,NE,53,0.0,3.0,87,0.00,,,0.00,weatherlink.com 1.10,2013-10-19 06:52:00,
2013-10-19 01:07:00,29.9,27.0,30.11,NE,53,0.0,0.0,88,0.00,,,0.00,weatherlink.com 1.10,2013-10-19 07:07:00,
2013-10-19 01:22:00,30.1,27.0,30.11,NE,53,0.0,0.0,89,0.00,,,0.00,weatherlink.com 1.10,2013-10-19 07:22:00,
2013-10-19 01:38:00,29.2,26.0,30.11,NE,53,0.0,3.0,89,0.00,,,0.00,weatherlink.com 1.10,2013-10-19 07:38:00,
2013-10-19 01:53:00,29.0,27.0,30.11,NE,53,0.0,1.0,90,0.00,,,0.00,weatherlink.com 1.10,2013-10-19 07:53:00,
2013-10-19 02:08:00,28.3,26.0,30.11,NE,53,0.0,2.0,90,0.00,,,0.00,weatherlink.com 1.10,2013-10-19 08:08:00,
2013-10-19 02:23:00,28.8,27.0,30.11,NE,53,1.0,3.0,93,0.00,,,0.00,weatherlink.com 1.10,2013-10-19 08:23:00,
2013-10-19 02:38:00,28.7,26.0,30.11,NE,53,0.0,1.0,90,0.00,,,0.00,weatherlink.com 1.10,2013-10-19 08:38:00,
2013-10-19 02:53:00,28.4,26.0,30.11,NE,53,0.0,2.0,91,0.00,,,0.00,weatherlink.com 1.10,2013-10-19 08:53:00,
2013-10-19 03:08:00,27.6,25.0,30.10,NE,53,0.0,1.0,91,0.00,,,0.00,weatherlink.com 1.10,2013-10-19 09:08:00,
2013-10-19 03:23:00,27.7,26.0,30.10,NE,53,0.0,2.0,93,0.00,,,0.00,weatherlink.com 1.10,2013-10-19 09:23:00,
2013-10-19 03:38:00,27.6,26.0,30.09,NE,54,2.0,3.0,92,0.00,,,0.00,weatherlink.com 1.10,2013-10-19 09:38:00,
2013-10-19 03:53:00,27.6,26.0,30.09,North,350,0.0,3.0,92,0.00,,,0.00,weatherlink.com 1.10,2013-10-19 09:53:00,
2013-10-19 04:08:00,27.3,25.0,30.09,North,350,0.0,0.0,92,0.00,,,0.00,weatherlink.com 1.10,2013-10-19 10:08:00,
2013-10-19 04:23:00,-999.0,-99.9,30.09,North,-999,-999.0,-999.0,-999,0.00,,,0.00,weatherlink.com 1.10,2013-10-19 10:23:00,
2013-10-19 04:38:00,-999.0,-99.9,30.09,North,-999,-999.0,-999.0,-999,0.00,,,0.00,weatherlink.com 1.10,2013-10-19 10:38:00,
2013-10-19 04:53:00,-999.0,-99.9,30.10,North,-999,-999.0,-999.0,-999,0.00,,,0.00,weatherlink.com 1.10,2013-10-19 10:53:00,
2013-10-19 05:08:00,-999.0,-99.9,30.09,North,-999,-999.0,-999.0,-999,0.00,,,0.00,weatherlink.com 1.10,2013-10-19 11:08:00,
2013-10-19 05:23:00,-999.0,-99.9,30.09,North,-999,-999.0,-999.0,-999,0.00,,,0.00,weatherlink.com 1.10,2013-10-19 11:23:00,
2013-10-19 05:38:00,-999.0,-99.9,30.08,North,-999,-999.0,-999.0,-999,0.00,,,0.00,weatherlink.com 1.10,2013-10-19 11:38:00,
2013-10-19 05:53:00,-999.0,-99.9,30.09,North,-999,-999.0,-999.0,-999,0.00,,,0.00,weatherlink.com 1.10,2013-10-19 11:53:00,
2013-10-19 06:08:00,-999.0,-99.9,30.08,North,-999,-999.0,-999.0,-999,0.00,,,0.00,weatherlink.com 1.10,2013-10-19 12:08:00,
2013-10-19 06:23:00,-999.0,-99.9,30.08,North,-999,-999.0,-999.0,-999,0.00,,,0.00,weatherlink.com 1.10,2013-10-19 12:23:00,
2013-10-19 06:39:00,-999.0,-99.9,30.08,North,-999,-999.0,-999.0,-999,0.00,,,0.00,weatherlink.com 1.10,2013-10-19 12:39:00,
2013-10-19 06:54:00,-999.0,-99.9,30.07,North,-999,-999.0,-999.0,-999,0.00,,,0.00,weatherlink.com 1.10,2013-10-19 12:54:00,
2013-10-19 07:09:00,-999.0,-99.9,30.07,North,-999,-999.0,-999.0,-999,0.00,,,0.00,weatherlink.com 1.10,2013-10-19 13:09:00,
2013-10-19 07:24:00,-999.0,-99.9,30.07,North,-999,-999.0,-999.0,-999,0.00,,,0.00,weatherlink.com 1.10,2013-10-19 13:24:00,
2013-10-19 07:39:00,-999.0,-99.9,30.08,North,-999,-999.0,-999.0,-999,0.00,,,0.00,weatherlink.com 1.10,2013-10-19 13:39:00,
2013-10-19 07:54:00,-999.0,-99.9,30.08,North,-999,-999.0,-999.0,-999,0.00,,,0.00,weatherlink.com 1.10,2013-10-19 13:54:00,
2013-10-19 08:09:00,-999.0,-99.9,30.08,North,-999,-999.0,-999.0,-999,0.00,,,0.00,weatherlink.com 1.10,2013-10-19 14:09:00,
2013-10-19 08:24:00,-999.0,-99.9,30.08,North,-999,-999.0,-999.0,-999,0.00,,,0.00,weatherlink.com 1.10,2013-10-19 14:24:00,
2013-10-19 08:39:00,-999.0,-99.9,30.08,North,-999,-999.0,-999.0,-999,0.00,,,0.00,weatherlink.com 1.10,2013-10-19 14:39:00,
2013-10-19 08:54:00,-999.0,-99.9,30.08,North,-999,-999.0,-999.0,-999,0.00,,,0.00,weatherlink.com 1.10,2013-10-19 14:54:00,
2013-10-19 09:09:00,-999.0,-99.9,30.08,North,-999,-999.0,-999.0,-999,0.00,,,0.00,weatherlink.com 1.10,2013-10-19 15:09:00,
2013-10-19 09:24:00,-999.0,-99.9,30.08,North,-999,-999.0,-999.0,-999,0.00,,,0.00,weatherlink.com 1.10,2013-10-19 15:24:00,
2013-10-19 09:39:00,-999.0,-99.9,30.08,North,-999,-999.0,-999.0,-999,0.00,,,0.00,weatherlink.com 1.10,2013-10-19 15:39:00,
2013-10-19 09:54:00,-999.0,-99.9,30.08,North,-999,-999.0,-999.0,-999,0.00,,,0.00,weatherlink.com 1.10,2013-10-19 15:54:00,
2013-10-19 10:10:00,31.2,28.0,30.08,North,360,0.0,0.0,89,0.00,,,0.00,weatherlink.com 1.10,2013-10-19 16:10:00,
2013-10-19 10:25:00,31.8,29.0,30.08,North,360,0.0,0.0,88,0.00,,,0.00,weatherlink.com 1.10,2013-10-19 16:25:00,
2013-10-19 10:40:00,33.4,30.0,30.08,North,360,1.0,2.0,87,0.00,,,0.00,weatherlink.com 1.10,2013-10-19 16:40:00,
2013-10-19 10:55:00,35.0,31.0,30.07,North,5,1.0,2.0,85,0.00,,,0.00,weatherlink.com 1.10,2013-10-19 16:55:00,
2013-10-19 11:10:00,36.8,32.0,30.07,NW,321,2.0,3.0,81,0.00,,,0.00,weatherlink.com 1.10,2013-10-19 17:10:00,
2013-10-19 11:25:00,38.6,32.0,30.06,NW,321,0.0,4.0,78,0.00,,,0.00,weatherlink.com 1.10,2013-10-19 17:25:00,
2013-10-19 11:40:00,40.9,33.0,30.06,NW,318,3.0,4.0,73,0.00,,,0.00,weatherlink.com 1.10,2013-10-19 17:40:00,
2013-10-19 11:55:00,42.6,31.0,30.05,ENE,63,2.0,4.0,65,0.00,,,0.00,weatherlink.com 1.10,2013-10-19 17:55:00,
2013-10-19 12:10:00,45.0,31.0,30.04,WNW,284,0.0,5.0,58,0.00,,,0.00,weatherlink.com 1.10,2013-10-19 18:10:00,
2013-10-19 12:25:00,46.5,31.0,30.03,SW,236,2.0,4.0,56,0.00,,,0.00,weatherlink.com 1.10,2013-10-19 18:25:00,
2013-10-19 12:40:00,47.8,31.0,30.03,NW,305,0.0,4.0,53,0.00,,,0.00,weatherlink.com 1.10,2013-10-19 18:40:00,
2013-10-19 12:55:00,48.8,32.0,30.02,NNW,328,0.0,5.0,52,0.00,,,0.00,weatherlink.com 1.10,2013-10-19 18:55:00,
2013-10-19 13:11:00,50.5,33.0,30.02,NW,325,2.0,6.0,52,0.00,,,0.00,weatherlink.com 1.10,2013-10-19 19:11:00,
2013-10-19 13:25:00,51.7,32.0,30.00,WNW,290,2.0,5.0,47,0.00,,,0.00,weatherlink.com 1.10,2013-10-19 19:25:00,
2013-10-19 13:40:00,52.9,31.0,30.00,West,267,0.0,3.0,44,0.00,,,0.00,weatherlink.com 1.10,2013-10-19 19:40:00,
2013-10-19 13:55:00,53.7,31.0,29.99,NNW,332,4.0,7.0,43,0.00,,,0.00,weatherlink.com 1.10,2013-10-19 19:55:00,
2013-10-19 14:11:00,53.6,32.0,29.99,West,259,1.0,4.0,44,0.00,,,0.00,weatherlink.com 1.10,2013-10-19 20:11:00,
2013-10-19 14:26:00,53.9,32.0,29.98,NNW,328,0.0,6.0,43,0.00,,,0.00,weatherlink.com 1.10,2013-10-19 20:26:00,
2013-10-19 14:41:00,54.9,32.0,29.97,West,262,1.0,4.0,42,0.00,,,0.00,weatherlink.com 1.10,2013-10-19 20:41:00,
2013-10-19 14:56:00,55.0,32.0,29.96,WNW,301,1.0,5.0,42,0.00,,,0.00,weatherlink.com 1.10,2013-10-19 20:56:00,
2013-10-19 15:11:00,55.0,33.0,29.96,North,355,2.0,7.0,44,0.00,,,0.00,weatherlink.com 1.10,2013-10-19 21:11:00,
2013-10-19 15:26:00,55.3,34.0,29.96,North,355,0.0,5.0,44,0.00,,,0.00,weatherlink.com 1.10,2013-10-19 21:26:00,
2013-10-19 15:41:00,56.0,34.0,29.95,NW,322,1.0,3.0,44,0.00,,,0.00,weatherlink.com 1.10,2013-10-19 21:41:00,
2013-10-19 15:56:00,56.2,34.0,29.94,NW,317,0.0,4.0,43,0.00,,,0.00,weatherlink.com 1.10,2013-10-19 21:56:00,
2013-10-19 16:11:00,55.8,34.0,29.93,NW,312,0.0,4.0,44,0.00,,,0.00,weatherlink.com 1.10,2013-10-19 22:11:00,
2013-10-19 16:26:00,56.3,34.0,29.94,WNW,283,4.0,5.0,44,0.00,,,0.00,weatherlink.com 1.10,2013-10-19 22:26:00,
2013-10-19 16:41:00,58.0,35.0,29.93,SSW,212,1.0,4.0,42,0.00,,,0.00,weatherlink.com 1.10,2013-10-19 22:41:00,
2013-10-19 16:56:00,58.9,35.0,29.93,SSW,203,0.0,2.0,41,0.00,,,0.00,weatherlink.com 1.10,2013-10-19 22:56:00,
2013-10-19 17:11:00,58.9,34.0,29.92,SE,140,3.0,5.0,39,0.00,,,0.00,weatherlink.com 1.10,2013-10-19 23:11:00,
2013-10-19 17:26:00,58.5,33.0,29.92,SE,141,0.0,3.0,39,0.00,,,0.00,weatherlink.com 1.10,2013-10-19 23:26:00,
2013-10-19 17:41:00,58.0,34.0,29.91,SSW,205,0.0,3.0,41,0.00,,,0.00,weatherlink.com 1.10,2013-10-19 23:41:00,
2013-10-19 17:56:00,56.2,34.0,29.91,North,360,2.0,5.0,44,0.00,,,0.00,weatherlink.com 1.10,2013-10-19 23:56:00,
2013-10-19 18:11:00,53.9,34.0,29.90,NE,42,5.0,5.0,47,0.00,,,0.00,weatherlink.com 1.10,2013-10-20 00:11:00,
2013-10-19 18:26:00,52.2,34.0,29.90,NNE,25,2.0,4.0,50,0.00,,,0.00,weatherlink.com 1.10,2013-10-20 00:26:00,
2013-10-19 18:41:00,50.6,34.0,29.91,NE,38,4.0,8.0,54,0.00,,,0.00,weatherlink.com 1.10,2013-10-20 00:41:00,
2013-10-19 18:56:00,50.1,33.0,29.91,North,355,0.0,9.0,52,0.00,,,0.00,weatherlink.com 1.10,2013-10-20 00:56:00,
2013-10-19 19:11:00,50.2,32.0,29.90,ENE,70,3.0,7.0,49,0.00,,,0.00,weatherlink.com 1.10,2013-10-20 01:11:00,
2013-10-19 19:26:00,48.3,32.0,29.91,ENE,71,0.0,5.0,54,0.00,,,0.00,weatherlink.com 1.10,2013-10-20 01:26:00,
2013-10-19 19:41:00,47.3,33.0,29.91,North,360,0.0,3.0,57,0.00,,,0.00,weatherlink.com 1.10,2013-10-20 01:41:00,
2013-10-19 19:56:00,45.4,33.0,29.92,NE,47,2.0,7.0,62,0.00,,,0.00,weatherlink.com 1.10,2013-10-20 01:56:00,
2013-10-19 20:11:00,44.7,32.0,29.92,WSW,248,0.0,6.0,62,0.00,,,0.00,weatherlink.com 1.10,2013-10-20 02:11:00,
2013-10-19 20:26:00,43.2,32.0,29.92,WSW,248,1.0,3.0,66,0.00,,,0.00,weatherlink.com 1.10,2013-10-20 02:26:00,
2013-10-19 20:41:00,43.9,31.0,29.93,NNE,30,2.0,9.0,60,0.00,,,0.00,weatherlink.com 1.10,2013-10-20 02:41:00,
2013-10-19 20:56:00,43.0,32.0,29.93,NE,53,0.0,6.0,66,0.00,,,0.00,weatherlink.com 1.10,2013-10-20 02:56:00,
2013-10-19 21:11:00,43.0,32.0,29.94,ESE,107,3.0,5.0,65,0.00,,,0.00,weatherlink.com 1.10,2013-10-20 03:11:00,
2013-10-19 21:26:00,42.8,32.0,29.94,SSE,157,2.0,4.0,65,0.00,,,0.00,weatherlink.com 1.10,2013-10-20 03:26:00,
2013-10-19 21:41:00,43.3,32.0,29.95,ENE,77,0.0,9.0,64,0.00,,,0.00,weatherlink.com 1.10,2013-10-20 03:41:00,
2013-10-19 21:56:00,42.9,31.0,29.95,NNW,327,1.0,7.0,64,0.00,,,0.00,weatherlink.com 1.10,2013-10-20 03:56:00,
2013-10-19 22:11:00,41.2,31.0,29.96,South,186,1.0,7.0,66,0.00,,,0.00,weatherlink.com 1.10,2013-10-20 04:11:00,
2013-10-19 22:26:00,43.1,31.0,29.96,WSW,250,0.0,5.0,63,0.00,,,0.00,weatherlink.com 1.10,2013-10-20 04:26:00,
2013-10-19 22:41:00,42.1,31.0,29.97,ESE,117,2.0,4.0,66,0.00,,,0.00,weatherlink.com 1.10,2013-10-20 04:41:00,
2013-10-19 22:56:00,43.3,32.0,29.98,SE,137,3.0,7.0,64,0.00,,,0.00,weatherlink.com 1.10,2013-10-20 04:56:00,
2013-10-19 23:11:00,44.5,32.0,29.98,NNW,337,2.0,5.0,61,0.00,,,0.00,weatherlink.com 1.10,2013-10-20 05:11:00,
2013-10-19 23:26:00,44.1,31.0,29.97,ESE,104,0.0,0.0,61,0.00,,,0.00,weatherlink.com 1.10,2013-10-20 05:26:00,
2013-10-19 23:41:00,41.5,31.0,29.97,East,98,3.0,3.0,67,0.00,,,0.00,weatherlink.com 1.10,2013-10-20 05:41:00,
2013-10-19 23:56:00,40.6,31.0,29.98,East,96,0.0,3.0,68,0.00,,,0.00,weatherlink.com 1.10,2013-10-20 05:56:00,